Location: Sternwarte_Laufen
(47.9344°N, 12.9346°E)
Time: 21:13:54
(UTC+01:00)

ISS - Pass Details

Date: 15 January 2018
Orbit: 402 x 407 km, 51.6° (Epoch: 17 January)

Event Time Altitude Azimuth Distance (km) Brightness Sun altitude
Exits shadow 05:26:48 21° 155° (SSE) 971 -1.6 -23.9°
Drops below altitude 10° 05:28:08 10° 143° (SE) 1,460 -0.5 -23.7°
Sets 05:30:17 0° 135° (SE) 2,317 0.8 -23.3°
